Theta_e
300 299 299 298 295 294 295 295 296 297 296 295 295 295 295 294 293 293 293 293 292 292 293 292 291 292 291 291 292 291 290 289 286 289 291 293 293 293 294 296 297 297 298
299 299 298 295 293 293 294 295 296 296 295 295 294 294 293 293 294 292 291 290 289 289 289 289 289 288 289 290 290 289 289 290 288 286 289 290 291 293 294 295 294 295 297
298 298 295 294 293 293 295 296 297 296 296 295 295 294 293 291 291 290 289 289 289 288 288 287 287 287 286 287 287 287 287 287 288 286 286 289 290 291 290 292 292 293 294
297 296 296 294 294 294 295 296 296 295 294 293 294 294 292 290 288 288 288 287 286 286 286 286 285 285 284 285 284 285 285 285 285 285 285 285 287 288 289 288 288 291 291
296 295 294 295 295 293 292 292 294 294 294 294 293 291 288 287 286 288 286 286 285 285 285 285 285 285 284 284 284 285 285 284 284 283 282 283 284 284 284 287 286 288 290
292 290 290 291 292 292 292 292 291 290 288 287 287 286 286 286 287 285 286 286 285 284 283 284 284 284 284 283 283 284 284 283 282 282 282 281 283 284 284 284 285 284 283
289 290 291 292 290 288 288 287 287 286 286 285 285 285 285 286 284 284 284 284 283 283 282 282 282 282 283 283 283 283 283 283 282 283 281 282 282 284 284 283 284 284 284
289 291 292 289 287 287 287 286 285 285 284 284 284 284 283 283 282 282 282 283 282 282 282 282 282 282 283 282 281 282 282 283 284 283 283 284 285 285 285 285 285 285 286
289 290 288 287 286 285 284 284 284 283 283 283 283 282 282 282 281 281 281 282 281 281 281 282 282 282 282 283 282 281 282 283 284 285 285 285 285 285 285 285 283 282 281
288 287 287 286 285 284 284 283 283 283 282 282 281 281 281 281 280 280 281 281 280 280 281 282 282 282 282 282 282 281 280 281 283 285 285 285 286 286 285 285 285 281 281
288 287 286 285 284 284 283 283 282 282 281 281 280 280 280 280 280 279 280 280 279 279 280 281 283 282 281 281 281 281 280 281 281 282 283 284 285 285 285 286 286 285 283
288 286 285 285 284 283 283 283 282 282 281 280 279 279 280 280 279 279 279 280 280 280 280 282 283 279 279 278 279 279 279 279 280 280 281 281 282 284 285 286 286 287 288
286 286 285 285 284 283 282 282 281 281 280 279 278 277 278 279 279 278 279 279 280 280 282 280 279 278 277 277 277 277 277 279 279 279 279 281 283 285 286 286 286 286 286
285 285 285 284 283 284 282 282 280 280 279 278 277 276 276 277 277 279 279 280 280 281 281 280 278 277 276 277 277 278 278 278 277 278 279 281 283 284 284 285 284 284 283
284 284 284 283 282 282 282 281 280 281 279 278 277 277 275 275 277 278 278 278 279 278 279 277 275 275 275 276 276 276 277 277 277 277 279 280 282 283 283 284 284 284 282
283 283 283 282 282 281 280 280 280 278 278 278 277 277 277 277 278 277 277 277 277 276 275 273 272 273 274 274 274 274 275 275 276 277 278 279 280 281 282 283 283 283 282
282 282 282 279 281 280 279 279 277 278 277 276 276 276 276 276 276 276 275 275 275 274 272 272 271 271 272 273 273 273 273 275 276 276 276 277 278 281 281 282 282 282 282
280 276 281 281 280 279 279 278 277 276 274 274 275 274 274 275 275 274 274 272 271 271 271 270 270 271 271 272 272 272 273 275 275 275 275 276 277 279 280 280 281 281 282
282 282 281 280 280 277 278 277 277 276 275 274 274 274 273 273 273 272 272 270 269 268 269 269 270 270 271 271 272 272 273 273 274 274 275 275 275 276 277 279 280 277 279
282 279 276 280 280 279 278 277 276 276 275 274 273 272 272 272 271 270 270 270 269 268 268 269 269 270 270 270 271 271 273 274 274 274 274 275 275 276 276 277 278 278 278
281 281 275 280 279 278 277 276 276 275 274 274 272 272 270 270 270 270 269 269 269 268 268 268 269 269 270 271 271 271 272 273 273 273 274 275 275 275 276 277 277 277 277
280 279 280 279 279 278 277 276 275 274 274 273 272 272 270 271 270 270 269 269 269 269 269 269 268 269 269 269 269 270 271 271 272 272 273 274 275 276 276 276 276 276 276
279 280 279 279 277 274 277 276 275 275 274 274 272 271 271 271 270 270 270 269 269 269 269 268 268 268 268 269 269 269 269 270 270 270 271 274 275 275 276 276 275 275 274
280 280 279 279 277 276 276 276 275 272 273 274 273 272 271 271 270 270 270 270 269 269 269 268 268 267 268 268 269 269 268 268 270 271 271 272 273 273 274 274 274 273 274
280 280 280 279 278 276 275 276 275 274 274 274 274 273 272 272 271 271 271 271 270 269 268 268 267 267 267 267 267 267 265 265 266 267 272 272 271 271 270 272 272 273 272
281 281 281 280 278 276 276 275 276 275 274 274 274 273 273 272 271 271 271 271 270 269 268 268 268 267 267 268 267 266 265 264 265 264 270 271 270 270 271 270 270 272 271
Wind_Speed
7 9 10 9 10 8 6 5 4 6 6 5 7 8 10 10 7 6 4 3 4 2 4 5 7 7 6 6 7 8 9 9 12 12 10 10 14 13 12 12 12 13 10
8 8 8 8 7 6 6 6 6 6 5 5 7 10 11 11 9 7 4 3 4 5 6 6 8 5 7 7 6 8 8 9 10 15 12 10 13 13 11 11 10 10 10
9 8 7 7 5 4 5 6 8 8 9 10 9 9 11 10 8 6 4 4 4 5 5 5 5 6 7 7 9 9 9 10 11 12 13 11 11 11 14 14 13 14 12
6 5 6 5 4 5 7 8 9 8 9 7 9 10 9 8 7 6 5 4 4 4 5 7 8 9 10 11 11 13 12 12 13 12 12 13 12 12 12 13 13 11 12
5 6 7 5 5 5 6 8 8 10 10 10 9 8 8 7 6 7 4 4 6 8 9 10 10 12 16 16 11 13 14 12 11 12 12 12 12 10 11 11 13 11 13
2 5 5 4 6 9 10 10 10 10 9 8 8 8 9 6 8 2 7 8 10 11 12 13 13 16 15 17 18 19 17 14 15 11 12 13 15 12 11 11 11 11 13
2 2 5 8 8 7 8 9 10 9 9 9 9 8 8 7 9 11 12 10 11 12 13 13 13 10 14 13 15 17 18 20 16 15 16 16 15 13 13 13 13 12 12
4 6 7 8 7 8 9 9 9 8 9 9 8 8 8 8 12 14 15 12 11 12 13 14 13 14 12 12 13 14 15 15 15 12 16 16 16 15 14 14 15 14 12
6 8 7 6 7 7 7 9 8 8 8 7 8 10 10 11 13 16 14 12 12 13 13 13 12 13 15 18 15 15 16 15 14 21 23 23 23 21 19 10 11 11 11
6 7 5 5 6 6 7 8 7 7 7 7 9 9 11 11 14 16 14 10 11 10 12 12 15 15 18 18 13 13 14 13 12 11 11 15 20 19 22 18 12 12 10
7 6 5 5 5 6 7 6 7 8 7 7 8 8 9 11 12 16 18 11 9 10 10 10 9 12 11 15 15 11 12 14 13 12 11 10 10 11 11 12 14 12 11
7 5 5 5 4 5 7 7 8 8 8 9 10 9 8 9 13 16 18 17 16 11 12 9 6 8 12 14 11 13 16 12 8 9 9 10 9 9 10 11 13 13 12
6 5 5 5 6 7 8 8 8 7 7 9 9 10 10 10 9 17 18 17 18 11 9 7 10 11 11 8 11 12 10 6 6 7 7 8 8 9 10 10 11 14 13
6 5 5 5 7 8 6 6 6 7 7 8 9 10 10 10 10 11 10 11 14 8 6 3 5 7 7 7 7 7 6 6 6 6 6 7 8 7 7 7 7 8 9
6 5 5 4 6 7 5 5 5 4 6 8 8 9 10 10 11 16 14 11 8 8 6 4 5 6 7 8 8 7 7 7 6 6 6 6 5 4 3 3 5 6 7
5 4 3 4 4 4 5 5 2 5 8 10 12 9 9 14 18 18 19 16 15 12 4 5 5 6 8 8 8 8 8 9 8 7 7 6 6 5 3 2 3 4 5
3 3 3 3 3 4 5 5 6 5 6 7 10 13 15 15 16 17 18 14 14 9 5 6 6 7 7 8 8 8 8 8 9 7 7 7 7 6 5 2 2 3 4
2 3 3 3 3 4 4 4 4 5 6 6 7 11 14 16 15 16 17 10 7 8 6 6 6 7 7 7 8 8 8 8 9 8 8 7 7 6 6 5 4 2 1
4 4 3 2 2 3 3 4 4 4 5 6 6 7 9 14 12 13 14 7 6 7 7 7 6 7 7 7 8 8 8 8 9 8 8 8 7 7 6 5 4 5 3
4 4 2 2 3 3 4 4 5 5 6 6 6 7 8 8 7 8 7 7 6 6 7 7 7 7 7 7 7 7 8 9 9 8 8 8 7 6 6 6 6 4 5
2 3 3 2 3 3 4 4 4 4 5 5 5 5 8 6 7 7 7 7 6 7 7 7 7 7 7 7 7 8 8 8 8 8 8 7 7 6 6 5 5 4 4
2 1 2 3 3 3 4 4 4 4 4 4 5 5 6 5 5 6 6 6 6 6 5 6 6 6 7 7 7 7 8 8 9 9 8 7 7 7 6 5 5 5 5
1 2 2 3 3 3 3 3 4 4 4 4 4 4 5 5 5 5 6 6 6 6 5 6 6 6 6 6 6 7 7 8 7 7 8 7 7 6 6 6 6 6 6
2 4 3 3 2 3 3 4 3 3 4 4 3 3 3 4 4 5 5 5 5 5 5 5 5 8 8 7 7 7 6 7 6 6 7 7 7 7 6 5 6 6 6
3 3 3 3 3 4 4 4 3 3 4 3 3 3 2 3 3 4 4 3 4 4 5 5 5 7 8 10 10 11 10 11 9 9 6 7 8 8 7 6 6 5 7
3 3 3 3 3 3 4 4 4 3 3 4 3 3 2 2 2 3 4 4 4 4 5 4 6 8 9 8 10 11 11 11 10 11 7 7 7 7 6 7 8 5 7
Wind_Direction
337 330 325 329 334 336 338 354 19 349 353 20 23 21 11 4 345 276 258 260 274 301 261 254 254 259 262 257 258 264 266 266 270 276 275 267 269 269 269 265 263 264 257
323 318 330 339 352 1 21 33 30 21 32 22 12 4 341 310 291 295 304 310 298 294 288 279 277 283 280 281 278 274 273 275 274 275 275 272 265 268 266 269 268 265 266
337 339 355 359 5 19 4 0 5 4 8 0 343 317 322 325 319 320 322 303 281 278 282 282 287 290 286 285 281 278 275 271 270 271 273 272 266 269 267 262 259 259 263
339 359 356 354 3 354 351 338 340 337 338 326 318 317 308 313 308 306 302 283 281 286 290 288 289 286 287 287 282 279 278 275 272 268 268 268 265 258 259 263 258 250 256
8 5 2 355 13 7 347 330 314 308 316 318 318 318 323 317 313 309 302 306 303 301 295 290 288 287 282 276 277 274 273 268 267 267 268 268 265 259 254 261 261 264 258
69 67 25 357 329 340 337 337 334 333 339 339 337 336 332 335 355 32 342 312 302 296 296 297 295 290 280 278 273 270 270 274 268 265 264 264 266 265 262 260 262 261 264
108 320 323 327 340 348 344 343 339 334 335 338 337 335 335 344 352 331 325 304 299 296 296 294 291 287 284 282 279 274 271 267 265 271 271 266 267 263 261 256 254 257 261
271 316 330 336 341 342 345 341 333 330 330 329 333 342 331 324 328 324 317 300 296 297 295 290 289 291 289 291 282 278 273 267 259 249 251 261 262 262 260 257 259 264 266
299 321 330 335 331 340 342 332 325 323 327 336 336 329 323 320 327 321 318 308 300 300 295 293 288 288 285 287 285 278 273 272 259 253 255 259 260 258 254 266 245 246 251
313 313 317 319 327 336 327 318 319 317 319 329 327 327 321 316 320 324 321 310 302 299 298 292 284 278 287 289 290 293 287 287 293 276 261 253 250 252 241 241 246 242 239
278 288 305 309 318 314 306 304 312 317 312 318 316 316 313 322 322 322 323 314 307 303 299 299 297 293 312 309 304 291 291 300 287 281 276 271 262 245 247 233 229 234 242
264 279 293 299 301 292 292 300 314 317 317 322 322 324 334 327 322 323 323 322 313 306 301 298 310 350 332 321 309 314 307 301 280 274 271 267 257 247 246 245 240 233 233
254 273 287 298 293 290 293 306 313 323 325 327 330 332 333 333 329 326 316 313 319 310 305 18 359 343 334 321 333 329 322 315 296 282 276 276 273 269 264 248 239 236 238
263 277 292 293 305 304 300 304 312 325 332 331 333 332 333 330 335 329 334 329 323 323 336 6 354 340 332 335 345 349 340 330 317 303 298 295 285 269 252 240 239 227 228
272 280 285 296 308 314 316 315 326 335 335 337 338 334 333 334 336 338 342 332 347 345 354 8 5 359 1 2 357 357 342 343 343 334 319 315 312 310 287 254 246 236 233
288 291 288 301 322 323 326 322 347 357 355 353 350 349 339 337 340 351 349 350 9 1 19 16 9 3 8 358 355 354 358 353 352 344 339 338 334 329 308 270 248 247 245
303 297 298 295 314 335 335 334 334 341 343 2 3 358 355 349 357 1 0 3 15 16 29 18 13 8 1 356 359 357 355 357 351 355 352 348 342 353 0 335 257 238 236
310 278 300 305 330 335 339 337 329 334 336 345 356 1 3 1 8 10 10 8 13 20 15 13 10 5 0 356 357 356 356 1 5 360 359 355 354 347 10 14 17 358 302
323 330 334 299 317 326 323 329 331 332 339 344 351 3 3 2 10 17 19 21 9 10 2 5 5 2 359 357 358 357 352 359 4 1 3 359 0 358 8 8 12 22 12
330 337 341 327 329 330 335 334 341 349 348 355 358 2 355 357 7 12 18 15 14 8 359 359 0 359 357 357 357 359 2 4 6 7 3 360 2 7 6 5 15 31 40
318 344 359 340 335 331 329 336 346 348 352 355 3 7 1 0 3 9 11 11 6 4 0 357 355 356 356 358 358 0 4 5 4 360 359 1 6 13 6 8 22 37 36
301 285 336 333 331 330 336 337 346 346 351 353 358 1 5 9 6 9 12 8 4 5 2 1 357 357 355 353 352 356 0 3 2 355 354 357 11 22 13 17 19 25 27
323 291 320 318 329 321 314 338 342 344 345 349 355 352 1 7 4 10 8 5 5 5 6 7 5 1 2 358 356 356 355 355 348 347 346 358 13 14 18 22 26 31 29
299 292 281 321 317 317 304 318 327 323 327 336 344 351 351 359 358 5 7 4 5 7 9 8 7 10 5 8 7 360 357 350 345 349 352 3 14 11 17 18 24 26 35
279 289 280 306 312 316 305 296 307 312 315 314 329 330 335 341 341 347 352 355 0 4 7 7 6 0 8 11 12 9 3 5 9 353 2 15 24 22 21 23 14 28 26
289 297 291 274 294 303 296 288 292 297 300 308 305 308 302 313 321 324 333 337 350 357 360 5 4 5 6 14 12 10 7 9 8 7 3 17 20 24 17 23 20 26 31